sat.trackr.live / text

‹ back to catalog

STARLINK-5743

NORAD 55597 · 2023-020AE

PAYLOAD ACTIVE UNKNOWN

§ Identity

Operator
Country
US
Launch date
2023-02-12
Launch site
AFETR
Launch vehicle
Mass (kg)
RCS (m²)

Purposes: comms

External: N2YO · Heavens-Above · Gunter

§ Orbital elements

Epoch: 2026-09-20T16:15:10.529280Z

Period
94.27 min
Inclination
43.0034°
Eccentricity
0.0001465
Mean motion
15.27581725 rev/d
Perigee alt
482.0 km
Apogee alt
484.0 km
Semi-major
6,861.2 km
B*
2.7553e-5
RAAN
332.7649°
Arg perigee
274.2900°
Mean anomaly
85.7784°
Rev number
19,886

§ Raw data

STARLINK-57431 55597U 23020AE  26263.67720520  .00000496  00000+0  27553-4 0  99902 55597  43.0034 332.7649 0001465 274.2900  85.7784 15.27581725198865

JSON: /api/v1/satellites/55597 · /tle

For live sub-satellite position, see the globe view (requires WebGL).

§ Visibility from observer

Set your observer location to see the next 7 days of passes ≥ 10°. The values pass through the URL so the page stays shareable.

No JS? Fill the form by hand. The geolocation button needs JavaScript.